03.05.2024;22:00;16
03.05.2024;21:00;18
03.05.2024;20:00;19
03.05.2024;19:00;25
03.05.2024;18:00;16
03.05.2024;17:00;17
03.05.2024;16:00;12
03.05.2024;15:00;11
03.05.2024;14:00;12
03.05.2024;13:00;10
03.05.2024;12:00;11
03.05.2024;11:00;11
03.05.2024;10:00;11
03.05.2024;09:00;13
03.05.2024;08:00;14
03.05.2024;07:00;12
03.05.2024;06:00;8
03.05.2024;05:00;6
03.05.2024;04:00;6
03.05.2024;03:00;5
03.05.2024;02:00;6
03.05.2024;01:00;9
03.05.2024;00:00;10
02.05.2024;23:00;9
02.05.2024;22:00;12
02.05.2024;21:00;10
02.05.2024;20:00;23
02.05.2024;19:00;19
02.05.2024;18:00;19
02.05.2024;17:00;22
02.05.2024;16:00;20
02.05.2024;15:00;15
02.05.2024;14:00;9
02.05.2024;13:00;9
02.05.2024;12:00;16
02.05.2024;11:00;16
02.05.2024;10:00;21
02.05.2024;09:00;25
02.05.2024;08:00;21
02.05.2024;07:00;13
02.05.2024;06:00;10
02.05.2024;05:00;8
02.05.2024;04:00;7
02.05.2024;03:00;9
02.05.2024;02:00;9
02.05.2024;01:00;11
02.05.2024;00:00;13
01.05.2024;23:00;12
